Home   Weather   Sioux Falls   Past weeks

Flag for USA Past Weather in Sioux Falls, South Dakota, USA — Yesterday and Last 2 Weeks

Now
80 °F

Partly sunny.


Feels Like: 82 °F
Forecast: 61 / 82 °F
Wind: 6 mph from East

Location: Foss Field

Current Time: Jul 28, 2017 at 1:59:45 pm

Latest Report: Jul 28, 2017 at 12:56 pm


Visibility: 10 mi

Pressure: 30.08 "Hg

Humidity: 58%

Dew Point: 64 °F

Location of Sioux FallsLocation

Past Weather in Sioux Falls — Graph

°F

Sioux Falls Temperature Yesterday

Maximum temperature yesterday: 84 °F (at 2:56 pm)
Minimum temperature yesterday: 59 °F (at 5:56 am)
Average temperature yesterday: 72 °F

High & Low Weather Summary for the Past Weeks

 TemperatureHumidityPressure
High96 °F (Jul 15, 4:56 pm)100% (Jul 19, 5:56 am)30.21 "Hg (Jul 19, 5:56 am)
Low56 °F (Jul 24, 4:56 am)35% (Jul 17, 2:56 pm)29.73 "Hg (Jul 21, 8:56 pm)
Average77 °F74%29.97 "Hg
* Reported Jul 13 11:37 am — Jul 28 11:56 am, Sioux Falls. Weather by CustomWeather, © 2017

Note: Actual official high and low records may vary slightly from our data, if they occured in-between our weather recording intervals... More about our weather records

Advertising

Sioux Falls Weather History for the Previous 24 Hours

Scroll right to see more
 ConditionsComfort  
Time TempWeatherWind HumidityBarometerVisibility
11:56 am
Fri, Jul 28
77 °FPartly sunny.7 mph64%30.08 "Hg10 mi
10:56 am77 °FPartly sunny.5 mph64%30.08 "Hg10 mi
9:56 am74 °FPartly sunny.No wind71%30.08 "Hg10 mi
8:56 am69 °FPartly sunny.No wind87%30.08 "Hg10 mi
7:56 am66 °FPartly sunny.No wind90%30.08 "Hg10 mi
6:56 am63 °FPartly sunny.No wind97%30.08 "Hg10 mi
5:56 am62 °FPassing clouds.3 mph96%30.07 "Hg10 mi
4:56 am62 °FPassing clouds.3 mph96%30.06 "Hg10 mi
3:56 am62 °FClear.3 mph93%30.06 "Hg10 mi
2:56 am63 °FClear.No wind93%30.05 "Hg10 mi
1:56 am63 °FClear.3 mph93%30.04 "Hg10 mi
12:56 am66 °FClear.No wind90%30.05 "Hg10 mi
11:56 pm
Thu, Jul 27
67 °FPassing clouds.No wind90%30.04 "Hg10 mi
10:56 pm69 °FPassing clouds.No wind84%30.03 "Hg10 mi
9:56 pm70 °FPassing clouds.3 mph79%30.04 "Hg10 mi
8:56 pm72 °FPassing clouds.6 mph76%30.03 "Hg10 mi
7:56 pm78 °FScattered clouds.8 mph58%30.02 "Hg10 mi
6:56 pm81 °FScattered clouds.12 mph54%30.03 "Hg10 mi
5:56 pm81 °FScattered clouds.9 mph53%30.04 "Hg10 mi
4:56 pm83 °FPassing clouds.8 mph51%30.04 "Hg10 mi
3:56 pm83 °FScattered clouds.12 mph51%30.06 "Hg10 mi
2:56 pm84 °FScattered clouds.7 mph49%30.07 "Hg10 mi
1:56 pm82 °FScattered clouds.3 mph55%30.08 "Hg10 mi
Weather by CustomWeather, © 2017

See weather overviewHow to use our weather pages